Weather History for Nerlerit Inaat, Greenland

Change the Weather History Date:

Sunday, January 19, 2014

  Actual Average Record
Temperature  
Mean Temperature 24 °F -  
Max Temperature 27 °F 4 °F 32 °F (2012)
Min Temperature 21 °F -0 °F -14 °F (1998)
Degree Days  
Heating Degree Days 41    
Moisture  
Dew Point 17 °F    
Average Humidity 68    
Maximum Humidity 80    
Minimum Humidity 50    
Precipitation  
Precipitation 0.00 in - - ()
Sea Level Pressure  
Sea Level Pressure 29.88 in    
Wind  
Wind Speed 12 mph ()    
Max Wind Speed 20 mph    
Max Gust Speed -    
Averages and records for this station are not official NWS values.
T = Trace of Precipitation, MM = Missing Value Source: Averaged Metar Reports

Daily Weather History Graph

Daily Weather History Graph

Search for Another Location

Airport:

Trip Planner

Search our weather history database for the weather conditions in past years. The results will help you decide how hot, cold, wet, or windy it might be!

Date:

Astronomy

Jan. 19, 2014 Rise Set
Actual Time 12:08 PM EGT 1:13 PM EGT
Civil Twilight 9:45 AM EGT 3:37 PM EGT
Nautical Twilight 8:12 AM EGT 5:11 PM EGT
Astronomical Twilight 6:55 AM EGT 6:28 PM EGT
Moon 8:27 PM EGT (1/19) 10:01 AM EGT (1/19)
Length of Visible Light 5h 52m
Length of Day
1h 04m
Waning Gibbous, 90% of the Moon is Illuminated
Jan 19
Waning Gibbous
Jan 24
Last Quarter
Jan 30
New
Feb 6
First Quarter
Feb 14
Full

Hourly Weather History & Observations

Time (EGT) Temp. Windchill Dew Point Humidity Pressure Visibility Wind Dir Wind Speed Gust Speed Precip Events Conditions
12:50 AM 26.6 °F 15.2 °F 17.6 °F 69% 29.86 in - WNW 13.8 mph - N/A   Overcast
1:50 AM 26.6 °F 13.8 °F 19.4 °F 74% 29.86 in - WNW 17.3 mph - N/A   Overcast
2:00 AM 27 °F - 17 °F 54% 29.88 in - WNW 16.1 mph - -   Overcast
2:50 AM 24.8 °F 14.0 °F 19.4 °F 80% 29.86 in - NNW 11.5 mph - N/A   Overcast
3:50 AM 26.6 °F 15.7 °F 17.6 °F 69% 29.86 in - NW 12.7 mph - N/A   Overcast
4:50 AM 26.6 °F 15.7 °F 17.6 °F 69% 29.86 in - NW 12.7 mph - N/A   Mostly Cloudy
5:00 AM 27 °F - 17 °F 54% 29.88 in - WNW 11.5 mph - -   Mostly Cloudy
5:50 AM 24.8 °F 11.9 °F 19.4 °F 80% 29.86 in - North 16.1 mph - N/A   Overcast
6:50 AM 24.8 °F 10.7 °F 17.6 °F 74% 29.86 in - NNW 19.6 mph - N/A   Partly Cloudy
7:50 AM 23.0 °F 10.6 °F 17.6 °F 80% 29.89 in - NW 13.8 mph - N/A   Unknown
8:00 AM 24 °F - 16 °F 60% 29.89 in - NW 16.1 mph - -  
8:50 AM 23.0 °F 13.1 °F 15.8 °F 74% 29.89 in - NW 9.2 mph - N/A   Mostly Cloudy
9:50 AM 24.8 °F 16.1 °F 17.6 °F 74% 29.89 in - WNW 8.1 mph - N/A   Mostly Cloudy
10:50 AM 26.6 °F 16.2 °F 17.6 °F 69% 29.89 in - NW 11.5 mph - N/A   Mostly Cloudy
11:00 AM 27 °F - 17 °F 53% 29.91 in - NW 11.5 mph - -   Overcast
11:50 AM 24.8 °F 13.4 °F 17.6 °F 74% 29.89 in - North 12.7 mph - N/A   Mostly Cloudy
12:50 PM 24.8 °F 14.0 °F 17.6 °F 74% 29.89 in - NNW 11.5 mph - N/A   Overcast
1:50 PM 26.6 °F 15.2 °F 17.6 °F 69% 29.89 in - NW 13.8 mph - N/A   Overcast
2:00 PM 27 °F - 16 °F 50% 29.89 in - NW 13.8 mph - -   Overcast
2:50 PM 26.6 °F 15.2 °F 17.6 °F 69% 29.89 in - NW 13.8 mph - N/A   Mostly Cloudy
3:50 PM 24.8 °F 13.4 °F 15.8 °F 69% 29.89 in - WNW 12.7 mph - N/A   Overcast
4:50 PM 26.6 °F 15.2 °F 15.8 °F 64% 29.89 in - WNW 13.8 mph - N/A   Mostly Cloudy
5:00 PM 26 °F - 15 °F 52% 29.91 in - WNW 12.7 mph - -   Mostly Cloudy
5:50 PM 26.6 °F 16.8 °F 15.8 °F 64% 29.89 in - NW 10.4 mph - N/A   Mostly Cloudy
6:50 PM 26.6 °F 16.8 °F 15.8 °F 64% 29.89 in - NW 10.4 mph - N/A   Mostly Cloudy
7:50 PM 24.8 °F 12.9 °F 15.8 °F 69% 29.89 in - NW 13.8 mph - N/A   Mostly Cloudy
8:00 PM 26 °F - 15 °F 50% 29.91 in - NNW 12.7 mph - -   Partly Cloudy
8:50 PM 24.8 °F 14.6 °F 15.8 °F 69% 29.89 in - North 10.4 mph - N/A   Mostly Cloudy
9:50 PM 23.0 °F 11.1 °F 15.8 °F 74% 29.89 in - North 12.7 mph - N/A   Partly Cloudy
10:50 PM 21.2 °F 7.8 °F 15.8 °F 80% 29.89 in - North 15.0 mph - N/A   Mostly Cloudy
11:00 PM 22 °F - 15 °F 64% 29.89 in - North 15.0 mph - -   Scattered Clouds
11:50 PM 21.2 °F 6.0 °F 15.8 °F 80% 29.89 in - North 19.6 mph - N/A   Overcast